User: anonymous   Login
Location: Caltech
(34.1382°N, 118.1253°W)
Time: 19:10:35
(UTC-07:00)
Language:

Cosmos 2322 - Orbit

View from above orbital plane
View from above orbital plane
View from above satellite
View from above satellite

Ground track
Ground track

The orbit data is extracted from the following two-line orbital elements,

1 23704U 95058A   16243.22260143 -.00000196  00000-0 -79020-4 0  9999
2 23704  70.9864 293.6433 0009360 193.0246 167.0635 14.13362797 74726
Epoch (UTC): 30 August 2016 05:20:32
Eccentricity: 0.0009360
inclination: 70.9864°
perigee height: 841 km
apogee height: 854 km
right ascension of ascending node: 293.6433°
argument of perigee: 193.0246°
revolutions per day: 14.13362797
mean anomaly at epoch: 167.0635°
orbit number at epoch: 7472

The dashed part of the orbit path shows where the satellite is in the earth's shadow,  

DLR